User: anonymous   Login
Location: Heiligenberg
(48.5381°N, 7.3897°E)
Time: 09:45:51
(UTC+00:00)
Language:

Cosmos 1328 - Orbit

View from above orbital plane
View from above orbital plane
View from above satellite
View from above satellite

Ground track
Ground track

The orbit data is extracted from the following two-line orbital elements,

1 12987U 81117A   22227.84895875  .00001652  00000-0  10045-3 0  9991
2 12987  82.5044 203.7749 0021019  35.4635 324.7987 15.09606666216399
Epoch (UTC): 15 August 2022 20:22:30
Eccentricity: 0.0021019
inclination: 82.5044°
perigee height: 523 km
apogee height: 552 km
right ascension of ascending node: 203.7749°
argument of perigee: 35.4635°
revolutions per day: 15.09606666
mean anomaly at epoch: 324.7987°
orbit number at epoch: 21639

The dashed part of the orbit path shows where the satellite is in the earth's shadow,  

DLR